PSEVM SBBW-SBPJ

Flight info

Callsign PSEVM
Flight time 1h 34m
Altitude 31000
Route OPVEL DCT LIBEC
Aircraft TBM9/L-SDFGRWY/S

Departure

Time 2026-05-09 04:04
Airport Barra do Garças Airport (SBBW)

Arrival

Time 2026-05-09 05:38
Airport Brigadeiro Lysias Rodrigues Airport (SBPJ)
Time Latitude Longitude Altitude Speed Heading
2026-05-09 03:58 -15.86004 -52.39136 1172 ft 0 kts 50°
2026-05-09 04:02 -15.86012 -52.39102 1167 ft 12 kts 52°
2026-05-09 04:02 -15.85943 -52.39012 1165 ft 20 kts 50°
2026-05-09 04:03 -15.86000 -52.38955 1160 ft 23 kts 243°
2026-05-09 04:03 -15.86109 -52.39098 1161 ft 28 kts 230°
2026-05-09 04:03 -15.86270 -52.39212 1159 ft 32 kts 152°
2026-05-09 04:03 -15.86323 -52.39132 1159 ft 9 kts 33°
2026-05-09 04:04 -15.86178 -52.38949 1160 ft 64 kts 52°
2026-05-09 04:04 -15.85765 -52.38421 1176 ft 120 kts 49°
2026-05-09 04:04 -15.85139 -52.37671 1378 ft 152 kts 46°
2026-05-09 04:04 -15.84366 -52.36876 1911 ft 156 kts 46°
2026-05-09 04:05 -15.83657 -52.36128 2767 ft 136 kts 43°
2026-05-09 04:05 -15.83015 -52.35464 3476 ft 129 kts 43°
2026-05-09 04:05 -15.82369 -52.34793 3994 ft 134 kts 44°
2026-05-09 04:05 -15.81709 -52.34100 4550 ft 136 kts 44°
2026-05-09 04:06 -15.81034 -52.33394 5088 ft 139 kts 43°
2026-05-09 04:06 -15.80348 -52.32681 5633 ft 140 kts 43°
2026-05-09 04:06 -15.79661 -52.31961 6182 ft 141 kts 44°
2026-05-09 04:06 -15.78969 -52.31241 6761 ft 141 kts 43°
2026-05-09 04:07 -15.78276 -52.30518 7311 ft 142 kts 43°
2026-05-09 04:07 -15.77579 -52.29791 7878 ft 142 kts 43°
2026-05-09 04:07 -15.76880 -52.29061 8459 ft 143 kts 43°
2026-05-09 04:07 -15.76180 -52.28331 9044 ft 143 kts 43°
2026-05-09 04:08 -15.75475 -52.27596 9629 ft 144 kts 43°
2026-05-09 04:08 -15.74775 -52.26865 10161 ft 146 kts 43°
2026-05-09 04:08 -15.74055 -52.26116 10670 ft 148 kts 43°
2026-05-09 04:08 -15.73312 -52.25341 11188 ft 151 kts 43°
2026-05-09 04:09 -15.72565 -52.24563 11700 ft 153 kts 43°
2026-05-09 04:09 -15.71806 -52.23772 12213 ft 156 kts 43°
2026-05-09 04:09 -15.71032 -52.22967 12735 ft 159 kts 43°
2026-05-09 04:09 -15.70255 -52.22158 13259 ft 161 kts 43°
2026-05-09 04:10 -15.69458 -52.21323 13779 ft 164 kts 43°
2026-05-09 04:10 -15.68643 -52.20477 14247 ft 167 kts 43°
2026-05-09 04:10 -15.67821 -52.19621 14727 ft 168 kts 43°
2026-05-09 04:10 -15.66990 -52.18755 15205 ft 170 kts 44°
2026-05-09 04:11 -15.66150 -52.17880 15694 ft 172 kts 44°
2026-05-09 04:11 -15.65301 -52.16997 16183 ft 174 kts 44°
2026-05-09 04:11 -15.64444 -52.16104 16675 ft 176 kts 44°
2026-05-09 04:11 -15.63575 -52.15200 17168 ft 178 kts 44°
2026-05-09 04:12 -15.62699 -52.14288 17669 ft 180 kts 44°
2026-05-09 04:12 -15.61812 -52.13365 18182 ft 182 kts 44°
2026-05-09 04:12 -15.60917 -52.12434 18617 ft 183 kts 44°
2026-05-09 04:12 -15.60016 -52.11496 19077 ft 184 kts 44°
2026-05-09 04:13 -15.59113 -52.10557 19532 ft 184 kts 43°
2026-05-09 04:13 -15.58204 -52.09611 19993 ft 185 kts 43°
2026-05-09 04:13 -15.57293 -52.08664 20465 ft 186 kts 43°
2026-05-09 04:13 -15.56377 -52.07712 20926 ft 187 kts 43°
2026-05-09 04:14 -15.55457 -52.06755 21400 ft 188 kts 43°
2026-05-09 04:14 -15.54533 -52.05795 21868 ft 189 kts 43°
2026-05-09 04:14 -15.53603 -52.04828 22351 ft 190 kts 43°
2026-05-09 04:14 -15.52668 -52.03857 22830 ft 191 kts 43°
2026-05-09 04:15 -15.51729 -52.02881 23315 ft 192 kts 43°
2026-05-09 04:15 -15.50783 -52.01899 23750 ft 193 kts 43°
2026-05-09 04:15 -15.49830 -52.00909 24144 ft 195 kts 43°
2026-05-09 04:15 -15.48869 -51.99911 24537 ft 197 kts 43°
2026-05-09 04:16 -15.47899 -51.98903 24933 ft 198 kts 43°
2026-05-09 04:16 -15.46918 -51.97885 25333 ft 200 kts 43°
2026-05-09 04:16 -15.45930 -51.96859 25737 ft 202 kts 42°
2026-05-09 04:16 -15.44932 -51.95823 26136 ft 204 kts 43°
2026-05-09 04:17 -15.43926 -51.94778 26544 ft 206 kts 42°
2026-05-09 04:17 -15.42909 -51.93724 26947 ft 208 kts 42°
2026-05-09 04:17 -15.41884 -51.92660 27347 ft 210 kts 42°
2026-05-09 04:17 -15.40848 -51.91585 27748 ft 212 kts 42°
2026-05-09 04:18 -15.39802 -51.90500 28139 ft 214 kts 42°
2026-05-09 04:18 -15.38747 -51.89405 28531 ft 216 kts 42°
2026-05-09 04:18 -15.37681 -51.88301 28915 ft 218 kts 42°
2026-05-09 04:18 -15.36605 -51.87185 29301 ft 220 kts 42°
2026-05-09 04:19 -15.35520 -51.86059 29679 ft 222 kts 42°
2026-05-09 04:19 -15.34424 -51.84923 30042 ft 224 kts 42°
2026-05-09 04:19 -15.33319 -51.83778 30337 ft 226 kts 42°
2026-05-09 04:19 -15.32202 -51.82621 30619 ft 228 kts 41°
2026-05-09 04:20 -15.31074 -51.81452 30899 ft 231 kts 41°
2026-05-09 04:20 -15.29918 -51.80256 30943 ft 247 kts 42°
2026-05-09 04:20 -15.28668 -51.78958 30953 ft 263 kts 42°
2026-05-09 04:20 -15.27342 -51.77578 30952 ft 277 kts 43°
2026-05-09 04:21 -15.25952 -51.76136 30952 ft 289 kts 43°
2026-05-09 04:21 -15.24510 -51.74642 30953 ft 298 kts 43°
2026-05-09 04:21 -15.21502 -51.71530 30948 ft 312 kts 43°
2026-05-09 04:22 -15.19954 -51.69927 30947 ft 317 kts 43°
2026-05-09 04:22 -15.16796 -51.66660 30951 ft 324 kts 43°
2026-05-09 04:23 -15.13582 -51.63338 30947 ft 328 kts 43°
2026-05-09 04:23 -15.10338 -51.59987 30944 ft 331 kts 43°
2026-05-09 04:24 -15.07026 -51.56663 30940 ft 332 kts 39°
2026-05-09 04:24 -15.04094 -51.54096 30937 ft 333 kts 39°
2026-05-09 04:25 -15.00576 -51.50978 30941 ft 333 kts 39°
2026-05-09 04:25 -14.97044 -51.47862 30931 ft 334 kts 39°
2026-05-09 04:26 -14.93509 -51.44741 30936 ft 334 kts 39°
2026-05-09 04:26 -14.89968 -51.41618 30924 ft 335 kts 39°
2026-05-09 04:27 -14.86423 -51.38493 30923 ft 335 kts 39°
2026-05-09 04:27 -14.82878 -51.35368 30926 ft 335 kts 39°
2026-05-09 04:28 -14.79331 -51.32243 30920 ft 335 kts 39°
2026-05-09 04:28 -14.75779 -51.29115 30925 ft 335 kts 39°
2026-05-09 04:29 -14.72253 -51.26011 30924 ft 335 kts 39°
2026-05-09 04:29 -14.68699 -51.22885 30927 ft 335 kts 39°
2026-05-09 04:30 -14.65146 -51.19761 30922 ft 336 kts 39°
2026-05-09 04:30 -14.61591 -51.16635 30924 ft 336 kts 39°
2026-05-09 04:31 -14.58035 -51.13511 30924 ft 336 kts 40°
2026-05-09 04:31 -14.54480 -51.10389 30927 ft 336 kts 39°
2026-05-09 04:32 -14.50921 -51.07265 30925 ft 336 kts 40°
2026-05-09 04:32 -14.47363 -51.04142 30921 ft 336 kts 40°
2026-05-09 04:33 -14.43804 -51.01021 30922 ft 336 kts 40°
2026-05-09 04:33 -14.40240 -50.97897 30926 ft 336 kts 40°
2026-05-09 04:34 -14.36679 -50.94776 30919 ft 336 kts 40°
2026-05-09 04:34 -14.33113 -50.91653 30920 ft 336 kts 40°
2026-05-09 04:35 -14.29546 -50.88530 30928 ft 337 kts 40°
2026-05-09 04:35 -14.25975 -50.85404 30927 ft 337 kts 40°
2026-05-09 04:36 -14.22402 -50.82279 30925 ft 337 kts 40°
2026-05-09 04:36 -14.18852 -50.79174 30931 ft 337 kts 40°
2026-05-09 04:37 -14.15276 -50.76049 30926 ft 337 kts 40°
2026-05-09 04:37 -14.11694 -50.72919 30922 ft 337 kts 40°
2026-05-09 04:38 -14.08111 -50.69791 30927 ft 338 kts 40°
2026-05-09 04:38 -14.04528 -50.66663 30928 ft 338 kts 40°
2026-05-09 04:39 -14.00944 -50.63536 30928 ft 338 kts 40°
2026-05-09 04:39 -13.97357 -50.60406 30929 ft 338 kts 40°
2026-05-09 04:40 -13.93767 -50.57277 30933 ft 338 kts 40°
2026-05-09 04:40 -13.90180 -50.54150 30930 ft 338 kts 40°
2026-05-09 04:41 -13.86591 -50.51024 30930 ft 338 kts 40°
2026-05-09 04:41 -13.83002 -50.47899 30931 ft 338 kts 40°
2026-05-09 04:42 -13.79412 -50.44775 30929 ft 338 kts 40°
2026-05-09 04:42 -13.75822 -50.41651 30931 ft 338 kts 40°
2026-05-09 04:43 -13.72233 -50.38530 30930 ft 338 kts 40°
2026-05-09 04:43 -13.68642 -50.35409 30933 ft 338 kts 40°
2026-05-09 04:44 -13.65054 -50.32291 30930 ft 338 kts 40°
2026-05-09 04:44 -13.61466 -50.29175 30934 ft 338 kts 40°
2026-05-09 04:45 -13.57876 -50.26059 30938 ft 338 kts 40°
2026-05-09 04:45 -13.54287 -50.22944 30934 ft 338 kts 40°
2026-05-09 04:46 -13.50697 -50.19830 30935 ft 338 kts 40°
2026-05-09 04:46 -13.47105 -50.16714 30931 ft 338 kts 40°
2026-05-09 04:47 -13.43513 -50.13601 30934 ft 338 kts 40°
2026-05-09 04:47 -13.39918 -50.10486 30933 ft 338 kts 40°
2026-05-09 04:48 -13.36349 -50.07395 30937 ft 338 kts 40°
2026-05-09 04:48 -13.32751 -50.04281 30934 ft 338 kts 40°
2026-05-09 04:49 -13.29153 -50.01167 30934 ft 338 kts 40°
2026-05-09 04:49 -13.25554 -49.98054 30937 ft 338 kts 40°
2026-05-09 04:50 -13.21952 -49.94939 30939 ft 339 kts 40°
2026-05-09 04:50 -13.18349 -49.91824 30934 ft 339 kts 40°
2026-05-09 04:51 -13.14745 -49.88710 30934 ft 339 kts 40°
2026-05-09 04:51 -13.11137 -49.85594 30932 ft 339 kts 40°
2026-05-09 04:52 -13.07530 -49.82480 30936 ft 339 kts 40°
2026-05-09 04:52 -13.03945 -49.79387 30938 ft 339 kts 40°
2026-05-09 04:53 -13.00337 -49.76275 30930 ft 339 kts 40°
2026-05-09 04:53 -12.96728 -49.73162 30931 ft 339 kts 40°
2026-05-09 04:54 -12.93118 -49.70051 30934 ft 339 kts 40°
2026-05-09 04:54 -12.89506 -49.66939 30935 ft 339 kts 40°
2026-05-09 04:55 -12.85895 -49.63829 30932 ft 339 kts 40°
2026-05-09 04:55 -12.82281 -49.60717 30933 ft 339 kts 40°
2026-05-09 04:56 -12.78663 -49.57604 30934 ft 340 kts 40°
2026-05-09 04:56 -12.75045 -49.54491 30927 ft 340 kts 41°
2026-05-09 04:57 -12.71426 -49.51379 30929 ft 340 kts 41°
2026-05-09 04:57 -12.67805 -49.48267 30928 ft 340 kts 41°
2026-05-09 04:58 -12.64179 -49.45151 30926 ft 340 kts 41°
2026-05-09 04:58 -12.60553 -49.42037 30927 ft 340 kts 41°
2026-05-09 04:59 -12.56925 -49.38921 30930 ft 340 kts 41°
2026-05-09 04:59 -12.53298 -49.35808 30934 ft 341 kts 41°
2026-05-09 05:00 -12.49683 -49.32707 30928 ft 341 kts 41°
2026-05-09 05:00 -12.46043 -49.29584 30930 ft 341 kts 41°
2026-05-09 05:01 -12.42429 -49.26484 30929 ft 340 kts 41°
2026-05-09 05:01 -12.38789 -49.23370 30925 ft 340 kts 41°
2026-05-09 05:02 -12.35178 -49.20273 30933 ft 341 kts 41°
2026-05-09 05:02 -12.31531 -49.17150 30924 ft 341 kts 41°
2026-05-09 05:03 -12.27910 -49.14051 30924 ft 341 kts 41°
2026-05-09 05:03 -12.24268 -49.10934 30923 ft 341 kts 41°
2026-05-09 05:04 -12.20622 -49.07815 30924 ft 341 kts 41°
2026-05-09 05:04 -12.17004 -49.04722 30927 ft 341 kts 41°
2026-05-09 05:05 -12.13361 -49.01608 30925 ft 340 kts 41°
2026-05-09 05:05 -12.09745 -48.98518 30925 ft 340 kts 41°
2026-05-09 05:06 -12.06103 -48.95407 30923 ft 340 kts 41°
2026-05-09 05:06 -12.02467 -48.92303 30921 ft 340 kts 40°
2026-05-09 05:07 -11.98856 -48.89221 30925 ft 340 kts 40°
2026-05-09 05:07 -11.95212 -48.86112 30918 ft 340 kts 40°
2026-05-09 05:08 -11.91574 -48.83009 30922 ft 340 kts 40°
2026-05-09 05:08 -11.87953 -48.79922 30924 ft 340 kts 40°
2026-05-09 05:09 -11.84309 -48.76816 30926 ft 340 kts 40°
2026-05-09 05:09 -11.80692 -48.73735 30923 ft 340 kts 40°
2026-05-09 05:10 -11.77054 -48.70635 30926 ft 340 kts 40°
2026-05-09 05:10 -11.73435 -48.67555 30923 ft 340 kts 40°
2026-05-09 05:11 -11.69800 -48.64461 30925 ft 340 kts 40°
2026-05-09 05:11 -11.66167 -48.61370 30922 ft 340 kts 40°
2026-05-09 05:12 -11.62556 -48.58298 30926 ft 340 kts 40°
2026-05-09 05:12 -11.58914 -48.55203 30923 ft 339 kts 40°
2026-05-09 05:13 -11.55301 -48.52132 30925 ft 339 kts 40°
2026-05-09 05:13 -11.51674 -48.49051 30927 ft 339 kts 40°
2026-05-09 05:14 -11.48043 -48.45967 30928 ft 339 kts 40°
2026-05-09 05:14 -11.44436 -48.42905 30928 ft 339 kts 40°
2026-05-09 05:15 -11.41395 -48.40324 30930 ft 339 kts 40°
2026-05-09 05:15 -11.37790 -48.37266 30930 ft 339 kts 40°
2026-05-09 05:16 -11.34159 -48.34189 30929 ft 338 kts 39°
2026-05-09 05:16 -11.32231 -48.32872 30932 ft 338 kts 28°
2026-05-09 05:16 -11.30072 -48.31920 30929 ft 337 kts 18°
2026-05-09 05:16 -11.27792 -48.31378 30928 ft 336 kts
2026-05-09 05:17 -11.25472 -48.31257 30929 ft 330 kts 356°
2026-05-09 05:17 -11.21038 -48.32141 30935 ft 324 kts 343°
2026-05-09 05:18 -11.16699 -48.33352 30936 ft 322 kts 343°
2026-05-09 05:18 -11.12377 -48.34563 30935 ft 321 kts 343°
2026-05-09 05:19 -11.08091 -48.35763 30937 ft 321 kts 343°
2026-05-09 05:19 -11.03784 -48.36968 30935 ft 321 kts 343°
2026-05-09 05:20 -10.99473 -48.38173 30931 ft 320 kts 343°
2026-05-09 05:20 -10.95198 -48.39368 30933 ft 320 kts 343°
2026-05-09 05:21 -10.90885 -48.40574 30933 ft 320 kts 343°
2026-05-09 05:21 -10.86604 -48.41770 30937 ft 320 kts 343°
2026-05-09 05:22 -10.82295 -48.42974 30937 ft 320 kts 343°
2026-05-09 05:22 -10.77992 -48.44175 30939 ft 320 kts 343°
2026-05-09 05:23 -10.73715 -48.45369 30937 ft 320 kts 343°
2026-05-09 05:23 -10.69415 -48.46569 30938 ft 320 kts 343°
2026-05-09 05:24 -10.65108 -48.47771 30941 ft 320 kts 343°
2026-05-09 05:24 -10.60797 -48.48973 30942 ft 320 kts 343°
2026-05-09 05:25 -10.56516 -48.50168 30942 ft 320 kts 343°
2026-05-09 05:25 -10.50076 -48.51963 30943 ft 320 kts 343°
2026-05-09 05:26 -10.45764 -48.53164 30949 ft 320 kts 343°
2026-05-09 05:26 -10.41460 -48.54363 30949 ft 320 kts 343°
2026-05-09 05:27 -10.37176 -48.55557 30948 ft 320 kts 343°
2026-05-09 05:27 -10.32868 -48.56755 30946 ft 321 kts 343°
2026-05-09 05:28 -10.28568 -48.57856 30951 ft 306 kts 349°
2026-05-09 05:28 -10.26560 -48.58225 30515 ft 289 kts 348°
2026-05-09 05:28 -10.24519 -48.58647 28986 ft 310 kts 348°
2026-05-09 05:29 -10.22468 -48.59118 27721 ft 307 kts 346°
2026-05-09 05:29 -10.20476 -48.59910 26388 ft 309 kts 334°
2026-05-09 05:29 -10.18695 -48.61130 25116 ft 310 kts 322°
2026-05-09 05:29 -10.17089 -48.62588 23921 ft 310 kts 320°
2026-05-09 05:30 -10.15523 -48.64083 22609 ft 308 kts 320°
2026-05-09 05:30 -10.13984 -48.65578 21277 ft 304 kts 319°
2026-05-09 05:30 -10.12460 -48.67038 19996 ft 298 kts 320°
2026-05-09 05:30 -10.10879 -48.68356 18792 ft 289 kts 333°
2026-05-09 05:31 -10.09015 -48.68926 17537 ft 277 kts 360°
2026-05-09 05:31 -10.07172 -48.68558 16232 ft 268 kts 27°
2026-05-09 05:31 -10.05758 -48.67380 14980 ft 263 kts 55°
2026-05-09 05:31 -10.05074 -48.65691 13822 ft 259 kts 79°
2026-05-09 05:32 -10.05171 -48.63896 12720 ft 258 kts 108°
2026-05-09 05:32 -10.06122 -48.62370 11759 ft 259 kts 132°
2026-05-09 05:32 -10.07459 -48.60974 11013 ft 285 kts 135°
2026-05-09 05:32 -10.08856 -48.59583 10281 ft 277 kts 134°
2026-05-09 05:33 -10.10180 -48.58186 9522 ft 272 kts 132°
2026-05-09 05:33 -10.11471 -48.56801 8734 ft 268 kts 133°
2026-05-09 05:33 -10.12758 -48.55448 7950 ft 265 kts 133°
2026-05-09 05:33 -10.14035 -48.54116 7192 ft 262 kts 133°
2026-05-09 05:34 -10.15291 -48.52792 6443 ft 259 kts 132°
2026-05-09 05:34 -10.16535 -48.51484 5671 ft 256 kts 132°
2026-05-09 05:34 -10.17768 -48.50190 4907 ft 253 kts 131°
2026-05-09 05:34 -10.18983 -48.48912 4140 ft 250 kts 131°
2026-05-09 05:35 -10.20184 -48.47648 3381 ft 248 kts 131°
2026-05-09 05:35 -10.21376 -48.46392 2618 ft 246 kts 131°
2026-05-09 05:35 -10.22540 -48.45155 2267 ft 233 kts 131°
2026-05-09 05:35 -10.23620 -48.44007 2260 ft 219 kts 131°
2026-05-09 05:36 -10.24522 -48.42796 2109 ft 214 kts 121°
2026-05-09 05:36 -10.25174 -48.41786 1937 ft 137 kts 121°
2026-05-09 05:36 -10.25674 -48.41015 1772 ft 126 kts 121°
2026-05-09 05:36 -10.26151 -48.40281 1608 ft 122 kts 122°
2026-05-09 05:37 -10.26602 -48.39592 1449 ft 114 kts 123°
2026-05-09 05:37 -10.27031 -48.38946 1298 ft 101 kts 125°
2026-05-09 05:37 -10.27395 -48.38384 1167 ft 97 kts 124°
2026-05-09 05:37 -10.27767 -48.37822 1045 ft 95 kts 126°
2026-05-09 05:38 -10.28134 -48.37261 919 ft 96 kts 126°
2026-05-09 05:38 -10.28503 -48.36697 785 ft 96 kts 125°
2026-05-09 05:38 -10.28838 -48.36188 746 ft 76 kts 122°
2026-05-09 05:38 -10.29025 -48.35907 744 ft 19 kts 136°
2026-05-09 05:39 -10.29119 -48.35948 745 ft 17 kts 215°
2026-05-09 05:39 -10.29224 -48.36020 745 ft 16 kts 214°
2026-05-09 05:39 -10.29273 -48.36075 745 ft 8 kts 308°
2026-05-09 05:39 -10.29282 -48.36104 745 ft 4 kts 185°
2026-05-09 05:40 -10.29286 -48.36096 743 ft 2 kts 39°
2026-05-09 05:40 -10.29282 -48.36094 745 ft 0 kts 32°